Time,TemperatureF,DewpointF,PressureIn,WindDirection,WindDirectionDegrees,WindSpeedMPH,WindSpeedGustMPH,Humidity,HourlyPrecipIn,Conditions,Clouds,dailyrainin,SoftwareType,DateUTC
2013-11-07 00:08:00,50.8,50.0,30.24,WNW,298,0.0,0.0,95,0.00,,,0.00,weatherlink.com 1.10,2013-11-07 05:08:00,
2013-11-07 00:23:00,50.6,50.0,30.24,WNW,298,0.0,0.0,96,0.00,,,0.00,weatherlink.com 1.10,2013-11-07 05:23:00,
2013-11-07 00:38:00,50.5,49.0,30.23,WNW,298,0.0,0.0,96,0.00,,,0.00,weatherlink.com 1.10,2013-11-07 05:38:00,
2013-11-07 00:53:00,50.9,50.0,30.23,East,93,0.0,0.0,97,0.00,,,0.00,weatherlink.com 1.10,2013-11-07 05:53:00,
2013-11-07 01:08:00,51.3,50.0,30.22,East,93,0.0,0.0,96,0.00,,,0.00,weatherlink.com 1.10,2013-11-07 06:08:00,
2013-11-07 01:23:00,51.7,51.0,30.21,East,91,0.0,0.0,96,0.00,,,0.00,weatherlink.com 1.10,2013-11-07 06:23:00,
2013-11-07 01:38:00,51.7,51.0,30.20,East,93,0.0,0.0,96,0.00,,,0.00,weatherlink.com 1.10,2013-11-07 06:38:00,
2013-11-07 01:53:00,51.5,50.0,30.19,East,93,0.0,0.0,96,0.00,,,0.00,weatherlink.com 1.10,2013-11-07 06:53:00,
2013-11-07 02:08:00,51.2,50.0,30.19,NE,34,0.0,1.0,96,0.00,,,0.00,weatherlink.com 1.10,2013-11-07 07:08:00,
2013-11-07 02:23:00,50.8,50.0,30.18,NE,34,0.0,0.0,96,0.00,,,0.00,weatherlink.com 1.10,2013-11-07 07:23:00,
2013-11-07 02:38:00,50.5,49.0,30.17,ESE,120,0.0,0.0,96,0.00,,,0.00,weatherlink.com 1.10,2013-11-07 07:38:00,
2013-11-07 02:54:00,50.2,49.0,30.16,ESE,118,0.0,0.0,97,0.00,,,0.00,weatherlink.com 1.10,2013-11-07 07:54:00,
2013-11-07 03:09:00,50.1,49.0,30.15,ESE,118,0.0,0.0,97,0.00,,,0.00,weatherlink.com 1.10,2013-11-07 08:09:00,
2013-11-07 03:24:00,49.9,49.0,30.15,ESE,118,0.0,0.0,97,0.00,,,0.00,weatherlink.com 1.10,2013-11-07 08:24:00,
2013-11-07 03:39:00,50.1,49.0,30.14,ESE,119,0.0,0.0,97,0.00,,,0.00,weatherlink.com 1.10,2013-11-07 08:39:00,
2013-11-07 03:54:00,50.3,50.0,30.14,ESE,119,0.0,0.0,97,0.00,,,0.00,weatherlink.com 1.10,2013-11-07 08:54:00,
2013-11-07 04:09:00,50.6,50.0,30.13,ENE,65,1.0,1.0,97,0.00,,,0.00,weatherlink.com 1.10,2013-11-07 09:09:00,
2013-11-07 04:24:00,51.1,51.0,30.14,NE,56,0.0,0.0,98,0.00,,,0.00,weatherlink.com 1.10,2013-11-07 09:24:00,
2013-11-07 04:39:00,51.4,51.0,30.13,NE,56,0.0,0.0,97,0.00,,,0.00,weatherlink.com 1.10,2013-11-07 09:39:00,
2013-11-07 04:54:00,53.4,53.0,30.13,WNW,293,3.0,3.0,97,0.00,,,0.00,weatherlink.com 1.10,2013-11-07 09:54:00,
2013-11-07 05:09:00,55.6,53.0,30.13,WNW,286,1.0,5.0,92,0.00,,,0.00,weatherlink.com 1.10,2013-11-07 10:09:00,
2013-11-07 05:24:00,56.1,54.0,30.13,WNW,291,2.0,6.0,91,0.00,,,0.00,weatherlink.com 1.10,2013-11-07 10:24:00,
2013-11-07 05:39:00,56.7,54.0,30.13,WNW,295,3.0,6.0,91,0.00,,,0.00,weatherlink.com 1.10,2013-11-07 10:39:00,
2013-11-07 05:54:00,56.8,54.0,30.13,WNW,291,3.0,7.0,90,0.00,,,0.00,weatherlink.com 1.10,2013-11-07 10:54:00,
2013-11-07 06:09:00,56.6,54.0,30.13,NW,321,2.0,6.0,92,0.00,,,0.00,weatherlink.com 1.10,2013-11-07 11:09:00,
2013-11-07 06:24:00,56.2,54.0,30.13,NNW,329,3.0,4.0,93,0.00,,,0.00,weatherlink.com 1.10,2013-11-07 11:24:00,
2013-11-07 06:39:00,56.0,54.0,30.13,NW,318,1.0,5.0,94,0.00,,,0.00,weatherlink.com 1.10,2013-11-07 11:39:00,
2013-11-07 06:54:00,55.9,55.0,30.13,WNW,303,1.0,4.0,95,0.00,,,0.00,weatherlink.com 1.10,2013-11-07 11:54:00,
2013-11-07 07:09:00,56.0,55.0,30.13,NW,322,2.0,4.0,95,0.00,,,0.00,weatherlink.com 1.10,2013-11-07 12:09:00,
2013-11-07 07:24:00,55.7,55.0,30.13,West,261,0.0,3.0,96,0.01,,,0.01,weatherlink.com 1.10,2013-11-07 12:24:00,
2013-11-07 07:39:00,55.6,55.0,30.13,ESE,106,0.0,1.0,96,0.02,,,0.02,weatherlink.com 1.10,2013-11-07 12:39:00,
2013-11-07 07:54:00,55.5,55.0,30.14,ESE,105,0.0,0.0,97,0.02,,,0.02,weatherlink.com 1.10,2013-11-07 12:54:00,
2013-11-07 08:09:00,55.6,55.0,30.14,ESE,105,0.0,0.0,97,0.02,,,0.02,weatherlink.com 1.10,2013-11-07 13:09:00,
2013-11-07 08:24:00,55.8,55.0,30.12,SE,136,0.0,1.0,98,0.00,,,0.02,weatherlink.com 1.10,2013-11-07 13:24:00,
2013-11-07 08:39:00,55.9,55.0,30.13,SE,137,0.0,0.0,98,0.00,,,0.02,weatherlink.com 1.10,2013-11-07 13:39:00,
2013-11-07 08:54:00,56.3,56.0,30.12,SE,137,0.0,0.0,98,0.00,,,0.02,weatherlink.com 1.10,2013-11-07 13:54:00,
2013-11-07 09:09:00,56.5,56.0,30.12,SE,134,0.0,0.0,97,0.00,,,0.02,weatherlink.com 1.10,2013-11-07 14:09:00,
2013-11-07 09:24:00,56.9,56.0,30.12,SE,134,0.0,1.0,97,0.00,,,0.02,weatherlink.com 1.10,2013-11-07 14:24:00,
2013-11-07 09:39:00,57.2,56.0,30.12,NE,49,1.0,1.0,96,0.00,,,0.02,weatherlink.com 1.10,2013-11-07 14:39:00,
2013-11-07 09:54:00,57.4,56.0,30.13,SE,139,0.0,2.0,95,0.00,,,0.02,weatherlink.com 1.10,2013-11-07 14:54:00,
2013-11-07 10:09:00,58.5,57.0,30.13,NE,56,0.0,1.0,96,0.00,,,0.02,weatherlink.com 1.10,2013-11-07 15:09:00,
2013-11-07 10:24:00,59.6,58.0,30.12,West,266,0.0,4.0,93,0.00,,,0.02,weatherlink.com 1.10,2013-11-07 15:24:00,
2013-11-07 10:39:00,59.8,57.0,30.12,ENE,67,1.0,5.0,90,0.00,,,0.02,weatherlink.com 1.10,2013-11-07 15:39:00,
2013-11-07 10:54:00,59.2,57.0,30.13,East,100,1.0,4.0,91,0.00,,,0.02,weatherlink.com 1.10,2013-11-07 15:54:00,
2013-11-07 11:09:00,58.9,56.0,30.13,SE,137,0.0,3.0,90,0.00,,,0.02,weatherlink.com 1.10,2013-11-07 16:09:00,
2013-11-07 11:24:00,59.4,57.0,30.13,SW,233,0.0,1.0,90,0.00,,,0.02,weatherlink.com 1.10,2013-11-07 16:24:00,
2013-11-07 11:39:00,60.3,57.0,30.12,WNW,290,1.0,2.0,89,0.00,,,0.02,weatherlink.com 1.10,2013-11-07 16:39:00,
2013-11-07 11:54:00,61.2,57.0,30.12,East,94,0.0,2.0,85,0.00,,,0.02,weatherlink.com 1.10,2013-11-07 16:54:00,
2013-11-07 12:09:00,61.8,55.0,30.12,SE,127,1.0,6.0,77,0.00,,,0.02,weatherlink.com 1.10,2013-11-07 17:09:00,
2013-11-07 12:25:00,62.6,53.0,30.11,ESE,103,1.0,9.0,72,0.00,,,0.02,weatherlink.com 1.10,2013-11-07 17:25:00,
2013-11-07 12:40:00,61.9,54.0,30.11,NE,37,4.0,8.0,74,0.00,,,0.02,weatherlink.com 1.10,2013-11-07 17:40:00,
2013-11-07 12:55:00,63.1,54.0,30.11,SW,215,3.0,7.0,71,0.00,,,0.02,weatherlink.com 1.10,2013-11-07 17:55:00,
2013-11-07 13:10:00,63.6,54.0,30.11,North,359,0.0,5.0,71,0.00,,,0.02,weatherlink.com 1.10,2013-11-07 18:10:00,
2013-11-07 13:25:00,65.1,50.0,30.11,NE,55,1.0,7.0,59,0.01,,,0.03,weatherlink.com 1.10,2013-11-07 18:25:00,
2013-11-07 13:40:00,65.1,49.0,30.10,NNE,21,1.0,5.0,57,0.01,,,0.03,weatherlink.com 1.10,2013-11-07 18:40:00,
2013-11-07 13:55:00,64.9,47.0,30.10,SE,124,5.0,8.0,53,0.01,,,0.03,weatherlink.com 1.10,2013-11-07 18:55:00,
2013-11-07 14:25:00,62.7,46.0,30.10,NE,52,8.0,9.0,54,0.00,,,0.03,weatherlink.com 1.10,2013-11-07 19:25:00,
2013-11-07 14:40:00,61.9,44.0,30.10,ESE,115,3.0,11.0,52,0.00,,,0.03,weatherlink.com 1.10,2013-11-07 19:40:00,
2013-11-07 14:55:00,61.6,42.0,30.10,East,84,0.0,9.0,48,0.00,,,0.03,weatherlink.com 1.10,2013-11-07 19:55:00,
2013-11-07 15:25:00,60.2,40.0,30.12,ESE,103,2.0,9.0,47,0.00,,,0.03,weatherlink.com 1.10,2013-11-07 20:25:00,
2013-11-07 15:40:00,58.8,37.0,30.12,ENE,60,2.0,11.0,45,0.00,,,0.03,weatherlink.com 1.10,2013-11-07 20:40:00,
2013-11-07 15:55:00,56.6,35.0,30.13,NNE,25,2.0,9.0,44,0.00,,,0.03,weatherlink.com 1.10,2013-11-07 20:55:00,
2013-11-07 16:10:00,55.8,34.0,30.14,SE,128,2.0,6.0,44,0.00,,,0.03,weatherlink.com 1.10,2013-11-07 21:10:00,
2013-11-07 16:25:00,55.5,34.0,30.15,ESE,108,4.0,7.0,44,0.00,,,0.03,weatherlink.com 1.10,2013-11-07 21:25:00,
2013-11-07 16:40:00,54.7,32.0,30.15,East,101,2.0,4.0,43,0.00,,,0.03,weatherlink.com 1.10,2013-11-07 21:40:00,
2013-11-07 16:55:00,54.1,31.0,30.16,SE,128,6.0,6.0,41,0.00,,,0.03,weatherlink.com 1.10,2013-11-07 21:55:00,
2013-11-07 17:10:00,51.4,29.0,30.17,WNW,285,0.0,6.0,42,0.00,,,0.03,weatherlink.com 1.10,2013-11-07 22:10:00,
2013-11-07 17:25:00,49.7,27.0,30.17,South,177,2.0,11.0,42,0.00,,,0.03,weatherlink.com 1.10,2013-11-07 22:25:00,
2013-11-07 17:40:00,48.4,29.0,30.18,East,87,1.0,8.0,47,0.00,,,0.03,weatherlink.com 1.10,2013-11-07 22:40:00,
2013-11-07 17:55:00,47.7,28.0,30.18,ESE,104,2.0,9.0,47,0.00,,,0.03,weatherlink.com 1.10,2013-11-07 22:55:00,
2013-11-07 18:10:00,47.0,28.0,30.19,NNE,32,0.0,5.0,47,0.00,,,0.03,weatherlink.com 1.10,2013-11-07 23:10:00,
2013-11-07 18:25:00,46.4,28.0,30.20,NE,56,1.0,5.0,50,0.00,,,0.03,weatherlink.com 1.10,2013-11-07 23:25:00,
2013-11-07 18:40:00,45.9,29.0,30.20,SE,143,0.0,6.0,53,0.00,,,0.03,weatherlink.com 1.10,2013-11-07 23:40:00,
2013-11-07 18:55:00,45.1,30.0,30.21,ESE,107,1.0,8.0,57,0.00,,,0.03,weatherlink.com 1.10,2013-11-07 23:55:00,
2013-11-07 19:10:00,45.0,31.0,30.21,ESE,113,1.0,7.0,58,0.00,,,0.03,weatherlink.com 1.10,2013-11-08 00:10:00,
2013-11-07 19:25:00,44.9,31.0,30.21,SW,218,0.0,9.0,58,0.00,,,0.03,weatherlink.com 1.10,2013-11-08 00:25:00,
2013-11-07 19:40:00,44.6,31.0,30.21,NNE,28,3.0,11.0,60,0.00,,,0.03,weatherlink.com 1.10,2013-11-08 00:40:00,
2013-11-07 19:56:00,44.5,32.0,30.21,ESE,104,3.0,9.0,62,0.00,,,0.03,weatherlink.com 1.10,2013-11-08 00:56:00,
2013-11-07 20:11:00,44.4,32.0,30.20,NNE,26,3.0,9.0,63,0.00,,,0.03,weatherlink.com 1.10,2013-11-08 01:11:00,
2013-11-07 20:26:00,43.9,32.0,30.20,ENE,71,2.0,5.0,64,0.00,,,0.03,weatherlink.com 1.10,2013-11-08 01:26:00,
2013-11-07 20:41:00,43.8,32.0,30.20,NNE,12,2.0,5.0,63,0.00,,,0.03,weatherlink.com 1.10,2013-11-08 01:41:00,
2013-11-07 20:56:00,43.9,31.0,30.20,NE,44,2.0,7.0,62,0.00,,,0.03,weatherlink.com 1.10,2013-11-08 01:56:00,
2013-11-07 21:11:00,43.6,32.0,30.21,NNW,342,3.0,7.0,63,0.00,,,0.03,weatherlink.com 1.10,2013-11-08 02:11:00,
2013-11-07 21:26:00,43.6,31.0,30.21,East,94,1.0,11.0,62,0.00,,,0.03,weatherlink.com 1.10,2013-11-08 02:26:00,
2013-11-07 21:41:00,43.6,31.0,30.21,SSE,162,0.0,6.0,61,0.00,,,0.03,weatherlink.com 1.10,2013-11-08 02:41:00,
2013-11-07 21:56:00,43.4,31.0,30.21,ESE,110,2.0,8.0,61,0.00,,,0.03,weatherlink.com 1.10,2013-11-08 02:56:00,
2013-11-07 22:11:00,43.5,29.0,30.22,ESE,114,0.0,6.0,58,0.00,,,0.03,weatherlink.com 1.10,2013-11-08 03:11:00,
2013-11-07 22:26:00,43.2,28.0,30.22,South,174,0.0,7.0,56,0.00,,,0.03,weatherlink.com 1.10,2013-11-08 03:26:00,
2013-11-07 22:41:00,43.0,28.0,30.23,ESE,122,2.0,6.0,55,0.00,,,0.03,weatherlink.com 1.10,2013-11-08 03:41:00,
2013-11-07 22:56:00,42.6,27.0,30.23,NNE,25,0.0,4.0,55,0.00,,,0.03,weatherlink.com 1.10,2013-11-08 03:56:00,
2013-11-07 23:11:00,42.3,27.0,30.23,SSE,148,2.0,4.0,55,0.00,,,0.03,weatherlink.com 1.10,2013-11-08 04:11:00,
2013-11-07 23:26:00,42.3,27.0,30.23,SSW,203,3.0,4.0,55,0.00,,,0.03,weatherlink.com 1.10,2013-11-08 04:26:00,
2013-11-07 23:41:00,42.4,27.0,30.23,SW,222,0.0,9.0,55,0.00,,,0.03,weatherlink.com 1.10,2013-11-08 04:41:00,
2013-11-07 23:56:00,41.9,27.0,30.23,ESE,103,0.0,7.0,56,0.00,,,0.03,weatherlink.com 1.10,2013-11-08 04:56:00,